カタログに戻る

FENGYUN 1C DEB

運用中SSO
NORAD 30127·DEBRIS·🇨🇳 China

打ち上げ May 10, 1999 から Taiyuan Satellite Launch Center

Loading…

次のパス (今後24時間)

TLE

最新Source: Space-Track

元期: Sep 14, 2026, 12:50 UTC

1 30127U 99025SG  26257.53536534  .00004137  00000-0  12330-2 0  9990
2 30127  98.1924 107.5987 0082160 329.2152  30.4233 14.41630075 12049

AllMySatでFENGYUN 1C DEBをリアルタイム追跡

Download on the App Store